• en France
  • Liste des pays
  • À 7 jours
  • Température de l'eau
  • Carte satellitaire
  • Carte météo
  • Widgets météo
  • user-avatar
    Se connecter

    Météo par heure à Dyatlovo

    Ce jour, 22 Juillet, Dimanche

    Heure Température Précipitation Vent Pression Humidité
    00:00 +19°C° 0 mm 2 m/s 739 mmHg 95%
    01:00 +18°C° 0 mm 2 m/s 739 mmHg 96%
    02:00 +18°C° 0 mm 2 m/s 739 mmHg 98%
    03:00 +18°C° 0,1 mm 2 m/s 739 mmHg 97%
    04:00 +18°C° 0,1 mm 2 m/s 739 mmHg 97%
    05:00 +19°C° 0,1 mm 3 m/s 740 mmHg 97%
    06:00 +19°C° 0,1 mm 3 m/s 740 mmHg 95%
    07:00 +19°C° 0,1 mm 3 m/s 740 mmHg 94%
    08:00 +20°C° 0,1 mm 3 m/s 740 mmHg 93%
    09:00 +20°C° 0 mm 3 m/s 740 mmHg 91%
    10:00 +20°C° 0 mm 3 m/s 740 mmHg 90%
    11:00 +20°C° 0 mm 3 m/s 740 mmHg 88%
    12:00 +20°C° 0 mm 3 m/s 740 mmHg 87%
    13:00 +21°C° 0 mm 3 m/s 740 mmHg 85%
    14:00 +21°C° 0 mm 3 m/s 740 mmHg 84%
    15:00 +21°C° 0 mm 3 m/s 740 mmHg 84%
    16:00 +21°C° 0 mm 3 m/s 740 mmHg 84%
    17:00 +20°C° 0 mm 3 m/s 740 mmHg 85%
    18:00 +20°C° 0 mm 2 m/s 740 mmHg 85%
    19:00 +20°C° 0 mm 2 m/s 741 mmHg 86%
    20:00 +19°C° 0 mm 2 m/s 741 mmHg 87%
    21:00 +19°C° 0 mm 2 m/s 741 mmHg 88%
    22:00 +19°C° 0 mm 2 m/s 741 mmHg 89%
    23:00 +18°C° 0 mm 2 m/s 741 mmHg 90%

    Demain, 23 Juillet, Lundi

    Heure Température Précipitation Vent Pression Humidité
    00:00 +18°C° 0 mm 2 m/s 741 mmHg 91%
    01:00 +18°C° 0 mm 2 m/s 741 mmHg 93%
    02:00 +18°C° 0 mm 2 m/s 741 mmHg 94%
    03:00 +18°C° 0 mm 3 m/s 741 mmHg 94%
    04:00 +18°C° 0 mm 3 m/s 741 mmHg 93%
    05:00 +18°C° 0 mm 3 m/s 741 mmHg 93%
    06:00 +18°C° 0,1 mm 3 m/s 741 mmHg 91%
    07:00 +18°C° 0,1 mm 3 m/s 741 mmHg 89%
    08:00 +19°C° 0,1 mm 4 m/s 741 mmHg 87%
    09:00 +19°C° 0,1 mm 4 m/s 741 mmHg 86%
    10:00 +19°C° 0,1 mm 4 m/s 741 mmHg 84%
    11:00 +19°C° 0,1 mm 4 m/s 742 mmHg 82%
    12:00 +20°C° 0 mm 4 m/s 742 mmHg 78%
    13:00 +21°C° 0 mm 4 m/s 742 mmHg 74%
    14:00 +22°C° 0 mm 4 m/s 742 mmHg 70%
    15:00 +21°C° 0 mm 4 m/s 742 mmHg 71%
    16:00 +21°C° 0 mm 4 m/s 742 mmHg 73%
    17:00 +21°C° 0 mm 3 m/s 742 mmHg 75%
    18:00 +20°C° 0 mm 3 m/s 742 mmHg 78%
    19:00 +19°C° 0 mm 3 m/s 742 mmHg 81%
    20:00 +19°C° 0 mm 2 m/s 742 mmHg 85%
    21:00 +18°C° 0 mm 2 m/s 742 mmHg 87%
    22:00 +17°C° 0 mm 3 m/s 742 mmHg 90%
    23:00 +16°C° 0 mm 3 m/s 742 mmHg 92%

    Après-demain, 24 Juillet, Mardi

    Heure Température Précipitation Vent Pression Humidité
    00:00 +16°C° 0 mm 3 m/s 742 mmHg 93%
    01:00 +16°C° 0 mm 3 m/s 742 mmHg 93%
    02:00 +16°C° 0 mm 3 m/s 741 mmHg 94%
    03:00 +16°C° 0,1 mm 3 m/s 741 mmHg 94%
    04:00 +16°C° 0,1 mm 3 m/s 742 mmHg 94%
    05:00 +16°C° 0,1 mm 3 m/s 742 mmHg 94%
    06:00 +17°C° 0,2 mm 3 m/s 742 mmHg 93%
    07:00 +17°C° 0,2 mm 3 m/s 742 mmHg 93%
    08:00 +18°C° 0,2 mm 3 m/s 742 mmHg 92%
    09:00 +18°C° 0,2 mm 3 m/s 742 mmHg 91%
    10:00 +19°C° 0,2 mm 3 m/s 742 mmHg 90%
    11:00 +19°C° 0,2 mm 3 m/s 743 mmHg 89%
    12:00 +20°C° 0 mm 3 m/s 743 mmHg 87%
    13:00 +21°C° 0 mm 3 m/s 743 mmHg 84%
    14:00 +22°C° 0 mm 3 m/s 743 mmHg 82%
    15:00 +22°C° 0 mm 3 m/s 743 mmHg 80%
    16:00 +24°C° 0 mm 3 m/s 743 mmHg 78%
    17:00 +25°C° 0 mm 3 m/s 743 mmHg 76%
    18:00 +24°C° 0,2 mm 2 m/s 743 mmHg 82%
    19:00 +23°C° 0,2 mm 2 m/s 743 mmHg 88%
    20:00 +21°C° 0,2 mm 2 m/s 743 mmHg 93%
    21:00 +20°C° 0,2 mm 2 m/s 743 mmHg 94%
    22:00 +20°C° 0,2 mm 2 m/s 743 mmHg 95%
    23:00 +20°C° 0,2 mm 2 m/s 744 mmHg 96%

    25 Juillet, Mercredi

    Heure Température Précipitation Vent Pression Humidité
    00:00 +20°C° 0,5 mm 2 m/s 744 mmHg 97%
    01:00 +19°C° 0,5 mm 2 m/s 744 mmHg 97%
    02:00 +19°C° 0,5 mm 2 m/s 744 mmHg 97%
    03:00 +19°C° 0 mm 2 m/s 744 mmHg 97%
    04:00 +19°C° 0 mm 2 m/s 745 mmHg 96%
    05:00 +19°C° 0 mm 3 m/s 745 mmHg 96%
    06:00 +20°C° 0 mm 3 m/s 745 mmHg 91%
    07:00 +21°C° 0 mm 3 m/s 745 mmHg 87%
    08:00 +22°C° 0 mm 3 m/s 745 mmHg 82%
    09:00 +25°C° 0 mm 4 m/s 745 mmHg 72%
    10:00 +27°C° 0 mm 4 m/s 746 mmHg 61%
    11:00 +28°C° 0 mm 5 m/s 746 mmHg 50%
    12:00 +29°C° 0 mm 5 m/s 746 mmHg 47%
    13:00 +29°C° 0 mm 5 m/s 745 mmHg 44%
    14:00 +30°C° 0 mm 5 m/s 745 mmHg 41%
    15:00 +29°C° 0 mm 4 m/s 745 mmHg 45%
    16:00 +28°C° 0 mm 4 m/s 745 mmHg 48%
    17:00 +27°C° 0 mm 4 m/s 745 mmHg 51%
    18:00 +25°C° 0 mm 3 m/s 746 mmHg 54%
    19:00 +22°C° 0 mm 3 m/s 746 mmHg 58%
    20:00 +20°C° 0 mm 2 m/s 746 mmHg 61%
    21:00 +20°C° 0 mm 2 m/s 746 mmHg 62%
    22:00 +20°C° 0 mm 3 m/s 746 mmHg 64%
    23:00 +19°C° 0 mm 3 m/s 746 mmHg 65%

    26 Juillet, Jeudi

    Heure Température Précipitation Vent Pression Humidité
    00:00 +19°C° 0 mm 2 m/s 747 mmHg 68%
    01:00 +18°C° 0 mm 2 m/s 747 mmHg 71%
    02:00 +18°C° 0 mm 2 m/s 747 mmHg 74%
    03:00 +18°C° 0 mm 2 m/s 747 mmHg 76%
    04:00 +18°C° 0 mm 3 m/s 747 mmHg 79%
    05:00 +18°C° 0 mm 3 m/s 748 mmHg 81%
    06:00 +20°C° 0 mm 3 m/s 748 mmHg 76%
    07:00 +22°C° 0 mm 3 m/s 748 mmHg 71%
    08:00 +25°C° 0 mm 3 m/s 748 mmHg 66%
    09:00 +27°C° 0 mm 4 m/s 748 mmHg 60%
    10:00 +28°C° 0 mm 4 m/s 748 mmHg 53%
    11:00 +30°C° 0 mm 5 m/s 748 mmHg 46%
    12:00 +30°C° 0 mm 5 m/s 748 mmHg 46%
    13:00 +30°C° 0 mm 5 m/s 748 mmHg 46%
    14:00 +32°C° 0 mm 5 m/s 748 mmHg 45%
    15:00 +29°C° 0 mm 4 m/s 748 mmHg 51%
    16:00 +28°C° 0 mm 3 m/s 748 mmHg 56%
    17:00 +27°C° 0 mm 3 m/s 748 mmHg 62%
    18:00 +26°C° 0 mm 3 m/s 748 mmHg 65%
    19:00 +25°C° 0 mm 2 m/s 748 mmHg 69%
    20:00 +23°C° 0 mm 2 m/s 748 mmHg 72%
    21:00 +23°C° 0,2 mm 2 m/s 749 mmHg 76%
    22:00 +21°C° 0,2 mm 2 m/s 749 mmHg 80%
    23:00 +20°C° 0,2 mm 2 m/s 749 mmHg 85%

    27 Juillet, Vendredi

    Heure Température Précipitation Vent Pression Humidité
    00:00 +19°C° 0,2 mm 2 m/s 749 mmHg 87%
    01:00 +19°C° 0,2 mm 2 m/s 749 mmHg 89%
    02:00 +19°C° 0,2 mm 2 m/s 749 mmHg 92%
    03:00 +19°C° 0,4 mm 2 m/s 749 mmHg 92%
    04:00 +19°C° 0,4 mm 2 m/s 750 mmHg 93%
    05:00 +19°C° 0,4 mm 2 m/s 750 mmHg 93%
    06:00 +21°C° 0,1 mm 2 m/s 750 mmHg 90%
    07:00 +23°C° 0,1 mm 2 m/s 750 mmHg 87%
    08:00 +24°C° 0,1 mm 2 m/s 750 mmHg 85%
    09:00 +26°C° 0 mm 3 m/s 750 mmHg 76%
    10:00 +27°C° 0 mm 3 m/s 750 mmHg 68%
    11:00 +29°C° 0 mm 3 m/s 750 mmHg 59%
    12:00 +29°C° 0 mm 3 m/s 750 mmHg 57%
    13:00 +30°C° 0 mm 3 m/s 750 mmHg 55%
    14:00 +30°C° 0 mm 3 m/s 750 mmHg 52%
    15:00 +30°C° 0,2 mm 2 m/s 750 mmHg 56%
    16:00 +29°C° 0,2 mm 2 m/s 750 mmHg 60%
    17:00 +29°C° 0,2 mm 1 m/s 750 mmHg 64%
    18:00 +27°C° 0,2 mm 1 m/s 750 mmHg 68%
    19:00 +26°C° 0,2 mm 1 m/s 750 mmHg 72%
    20:00 +24°C° 0,2 mm 1 m/s 750 mmHg 76%
    21:00 +23°C° 0 mm 1 m/s 750 mmHg 79%
    22:00 +22°C° 0 mm 1 m/s 750 mmHg 81%
    23:00 +22°C° 0 mm 1 m/s 750 mmHg 84%
    Voir plus